Погода в Подберезове

Россия / Орловская область     53°15′51″N   36°37′35″E
темп.,
°C
ветер,
м/с
пор.,
м/с
влажн.,
%
обл.,
%
осадки,
мм/ч
давл.,
гПа
погр.,
м
16 января, вс
вс1600:00−5сз81587100 0.1 1006673
03:00−5сз6159096 0.1 1008645
06:00−4сз61393100 0.0 1008496
09:00−4сз7139395 0.4 1010541
12:00−4сз6109098 0.0 1012646
15:00−4сз5789100 0.1 1013698
18:00−9з389748 0.1 101499
21:00−11зюз399737 0.1 1013125
17 января, пн
пн1700:00−10юз411958 0.0 1011169
03:00−8юз6149579 0.0 1008299
06:00−7юз7189295 0.0 1004416
09:00−5юз91889100 0.0 1000664
12:00−3юз91693100 0.3 996839
15:00−1юз91593100 0.8 992825
18:00−1ююз81591100 0.1 990747
21:00−1ююз81596100 0.8 989852
18 января, вт
вт1800:00−1ююз61396100 1.0 988699
03:00−4з4995100 1.7 991440
06:00−8з2597100 0.0 99386
09:00−11з2298100 0.1 99638
12:00−7ссз2394100 0.1 998183
15:00−7ссз4996100 0.5 1001366
18:00−7ссз71294100 1.3 1005666
21:00−7с71494100 2.5 1008809
19 января, ср
ср1900:00−9с91692100 1.1 1011731
03:00−10с71590100 1.3 1014583
06:00−12ссз7149398 0.0 1016403
09:00−15ссз4119691 0.0 1018231
12:00−14ссз389568 0.0 1019227
15:00−12сз36945 0.0 1019175
18:00−20сз2210081 0.0 10209
21:00−23зюз1110098 0.0 10219
20 января, чт
чт2000:00−23ю2210099 0.0 10219
03:00−23ю22100100 0.0 102119
06:00−18ю3597100 0.0 102079
09:00−15ю4894100 0.0 1019155
12:00−12ю51089100 0.0 1019261
15:00−10ю51289100 0.0 1017349
18:00−12ю51488100 0.0 1016286
21:00−11ююв61686100 0.0 1016371